Ellensburg, WA

4:36 PM PDT on July 24, 2017 (GMT -0700)
Bowers

Weather History for KELN - February, 2014

Change the Weather History Date:

Sunday, February 2, 2014

  Actual Average (KYKM) Record (KYKM)
Temperature  
Mean Temperature 30 °F -  
Max Temperature 33 °F 39 °F 58 °F (1982)
Min Temperature 26 °F 23 °F -24 °F (1950)
Degree Days  
Heating Degree Days 36    
Moisture  
Dew Point 19 °F    
Average Humidity 67    
Maximum Humidity 78    
Minimum Humidity 59    
Precipitation  
Precipitation 0.00 in - - ()
Sea Level Pressure  
Sea Level Pressure 30.03 in    
Wind  
Wind Speed 4 mph (SE)    
Max Wind Speed 8 mph    
Max Gust Speed -    
Visibility 10 miles    
Events      
Averages and records for this station are not official NWS values.
T = Trace of Precipitation, MM = Missing Value Source: NWS Daily Summary

Daily Weather History Graph

Daily Weather History Graph

Search for Another Location

Airport or City:

Trip Planner

Search our weather history database for the weather conditions in past years. The results will help you decide how hot, cold, wet, or windy it might be!

Date:

Astronomy

Feb. 02, 2014 Rise Set
Actual Time 7:25 AM PST 5:06 PM PST
Civil Twilight 6:53 AM PST 5:39 PM PST
Nautical Twilight 6:16 AM PST 6:15 PM PST
Astronomical Twilight 5:41 AM PST 6:51 PM PST
Moon 8:39 AM PST (2/2) 9:14 PM PST (2/2)
Length of Visible Light 10h 45m
Length of Day
9h 40m
Waxing Crescent, 12% of the Moon is Illuminated
Feb 2
Waxing Crescent
Feb 6
First Quarter
Feb 14
Full
Feb 22
Last Quarter
Mar 1
New

Hourly Weather History & Observations

Time (PST) Temp. Windchill Dew Point Humidity Pressure Visibility Wind Dir Wind Speed Gust Speed Precip Events Conditions
12:22 AM 28.9 °F 21.9 °F 19.0 °F 67% 30.05 in 10.0 mi ESE 6.9 mph - N/A   Overcast
12:53 AM 28.9 °F 23.9 °F 19.0 °F 67% 30.10 in 10.0 mi SE 4.6 mph - N/A   Overcast
1:53 AM 28.0 °F 20.8 °F 18.0 °F 66% 30.10 in 10.0 mi SE 6.9 mph - N/A   Overcast
2:53 AM 28.0 °F 20.8 °F 17.1 °F 63% 30.11 in 10.0 mi SE 6.9 mph - N/A   Overcast
3:53 AM 28.0 °F 20.0 °F 18.0 °F 66% 30.10 in 10.0 mi ESE 8.1 mph - N/A   Overcast
4:53 AM 27.0 °F 21.6 °F 18.0 °F 69% 30.10 in 10.0 mi SE 4.6 mph - N/A   Overcast
5:53 AM 28.0 °F - 18.0 °F 66% 30.09 in 10.0 mi Calm Calm - N/A   Overcast
6:53 AM 28.0 °F - 19.0 °F 69% 30.09 in 10.0 mi Calm Calm - N/A   Overcast
7:53 AM 28.0 °F 22.8 °F 18.0 °F 66% 30.09 in 10.0 mi SSE 4.6 mph - N/A   Overcast
8:53 AM 28.9 °F - 18.0 °F 64% 30.08 in 10.0 mi Calm Calm - N/A   Overcast
9:53 AM 28.9 °F 25.2 °F 18.0 °F 64% 30.07 in 10.0 mi SSW 3.5 mph - N/A   Overcast
10:10 AM 30.0 °F 26.5 °F 19.0 °F 64% 30.01 in 10.0 mi South 3.5 mph - N/A   Overcast
10:53 AM 30.0 °F - 19.0 °F 64% 30.06 in 10.0 mi Calm Calm - N/A   Overcast
11:53 AM 32.0 °F - 19.9 °F 61% 30.03 in 10.0 mi Calm Calm - N/A   Overcast
12:53 PM 33.1 °F - 19.9 °F 59% 30.01 in 10.0 mi Calm Calm - N/A   Overcast
1:53 PM 33.1 °F 27.7 °F 19.9 °F 59% 29.99 in 10.0 mi SE 5.8 mph - N/A   Overcast
2:53 PM 33.1 °F 28.7 °F 19.9 °F 59% 29.99 in 10.0 mi SE 4.6 mph - N/A   Overcast
3:53 PM 32.0 °F 26.4 °F 19.0 °F 59% 29.99 in 10.0 mi SSE 5.8 mph - N/A   Overcast
4:53 PM 30.9 °F 26.2 °F 19.0 °F 61% 29.99 in 10.0 mi SSE 4.6 mph - 0.00 in   Overcast
5:31 PM 30.0 °F 24.1 °F 19.9 °F 66% 29.93 in 10.0 mi SE 5.8 mph - N/A   Overcast
5:53 PM 28.9 °F 23.9 °F 19.0 °F 67% 29.99 in 10.0 mi ESE 4.6 mph - N/A   Overcast
6:19 PM 28.0 °F 21.7 °F 19.0 °F 69% 29.92 in 10.0 mi ESE 5.8 mph - N/A   Mostly Cloudy
6:53 PM 27.0 °F - 19.0 °F 72% 29.98 in 10.0 mi Calm Calm - N/A   Mostly Cloudy
7:53 PM 27.0 °F 20.5 °F 19.0 °F 72% 29.97 in 10.0 mi East 5.8 mph - N/A   Overcast
8:53 PM 27.0 °F - 19.0 °F 72% 29.97 in 10.0 mi Calm Calm - N/A   Overcast
9:53 PM 26.1 °F - 19.0 °F 75% 29.98 in 10.0 mi Calm Calm - N/A   Scattered Clouds
10:53 PM 27.0 °F - 21.0 °F 78% 29.99 in 10.0 mi Calm Calm - N/A   Overcast
11:53 PM 27.0 °F - 21.0 °F 78% 30.00 in 10.0 mi Calm Calm - N/A   Overcast